C8053 Weather Reports


Display with metric or nautical units.
time (UTC)temp
F
wind
direction
speed
MPH
gust
MPH
rain 1hr
in
rain 24hr
in
rain mn
in
humidity
%
barometer
mb
20260507040935 59 73 2.0 3.0 0.00 0.12 0.00 84 1011.9
20260507040435 59 119 1.0 6.0 0.00 0.13 0.00 83 1011.9
20260507035935 59 79 3.0 7.0 0.00 0.14 0.00 84 1012.0
20260507035436 59 76 2.0 7.0 0.00 0.15 0.00 84 1011.9
20260507034936 59 107 1.0 5.0 0.00 0.16 0.00 83 1011.9
20260507034435 59 41 1.0 3.0 0.00 0.16 0.00 83 1012.0
20260507033436 59 83 3.0 7.0 0.00 0.16 0.00 83 1012.0
20260507031435 59 54 2.0 3.0 0.00 0.16 0.00 83 1012.0
20260507030935 59 76 1.0 5.0 0.00 0.16 0.00 83 1012.0
20260507030436 59 123 4.0 8.0 0.00 0.16 0.00 83 1011.9
20260507025935 59 101 3.0 9.0 0.00 0.16 0.00 83 1011.9
20260507024935 59 99 2.0 5.0 0.00 0.16 0.00 83 1011.8
20260507024438 59 145 2.0 3.0 0.00 0.17 0.00 83 1011.8
20260507023436 59 67 1.0 7.0 0.00 0.17 0.00 83 1011.9
20260507022936 59 58 2.0 5.0 0.00 0.17 0.00 83 1011.8
20260507022435 59 111 2.0 7.0 0.00 0.18 0.00 83 1011.8
20260507021935 59 103 3.0 12.0 0.00 0.18 0.00 83 1011.8
20260507021436 59 87 2.0 7.0 0.00 0.20 0.00 83 1011.9
20260507020935 59 92 2.0 5.0 0.00 0.20 0.00 83 1011.8
20260507015935 59 82 3.0 6.0 0.00 0.23 0.00 83 1011.8
20260507015435 59 90 1.0 6.0 0.00 0.25 0.00 83 1011.8
20260507014935 59 86 3.0 10.0 0.00 0.27 0.00 83 1011.8
20260507013936 59 119 3.0 6.0 0.00 0.31 0.00 83 1011.7
20260507013435 59 42 1.0 5.0 0.00 0.33 0.00 84 1011.7
20260507012935 59 69 1.0 3.0 0.00 0.36 0.00 83 1011.8
20260507012435 59 60 2.0 7.0 0.00 0.39 0.00 83 1011.8
20260507011935 59 116 2.0 7.0 0.00 0.43 0.00 83 1011.8
20260507011435 60 18 1.0 3.0 0.00 0.50 0.00 83 1011.9
20260507010935 60 346 1.0 6.0 0.00 0.56 0.00 83 1011.9
20260507010442 59 117 1.0 3.0 0.00 0.57 0.00 83 1011.9
20260507005936 59 289 5.0 9.0 0.00 0.57 0.00 83 1011.9
20260507005435 59 332 1.0 9.0 0.00 0.57 0.00 83 1011.9
20260507004935 59 128 2.0 8.0 0.00 0.59 0.00 83 1012.0
20260507004435 59 339 1.0 3.0 0.00 0.59 0.00 84 1012.1
20260507003935 59 38 1.0 5.0 0.00 0.60 0.00 84 1012.0
20260507003435 59 357 1.0 5.0 0.00 0.60 0.00 83 1011.9
20260507002436 59 17 2.0 6.0 0.00 0.60 0.00 83 1011.8
20260507001435 59 289 1.0 7.0 0.00 0.61 0.00 84 1011.8
20260507000936 60 352 1.0 6.0 0.00 0.61 0.00 83 1011.7
20260507000437 60 322 2.0 7.0 0.00 0.61 0.00 83 1011.8
20260506234935 60 337 2.0 7.0 0.00 0.61 0.00 83 1011.9
20260506234435 60 349 0.0 6.0 0.00 0.61 0.00 82 1011.9
20260506233936 60 48 3.0 5.0 0.00 0.61 0.00 82 1012.0
20260506233435 60 359 2.0 5.0 0.00 0.61 0.00 82 1012.0
20260506232437 60 41 1.0 7.0 0.00 0.61 0.00 82 1012.0
20260506231935 60 75 2.0 10.0 0.00 0.61 0.00 81 1011.9
20260506231436 60 21 2.0 8.0 0.00 0.61 0.00 81 1011.9
20260506230935 60 27 2.0 5.0 0.00 0.61 0.00 81 1011.9
20260506230436 60 336 3.0 7.0 0.00 0.61 0.00 81 1011.9
20260506225436 60 53 1.0 7.0 0.00 0.61 0.00 81 1012.0
20260506224935 60 87 2.0 5.0 0.00 0.61 0.00 82 1012.0
20260506224435 60 315 1.0 8.0 0.00 0.61 0.00 82 1012.0
20260506223935 60 351 2.0 8.0 0.00 0.61 0.00 82 1012.0
20260506223435 60 49 2.0 7.0 0.00 0.61 0.00 82 1011.9
20260506222436 60 3 3.0 8.0 0.00 0.61 0.00 81 1012.0
20260506221435 60 168 3.0 8.0 0.00 0.69 0.00 82 1011.9
20260506220937 60 152 3.0 6.0 0.00 0.72 0.00 82 1012.0
20260506220436 60 214 2.0 6.0 0.00 0.72 0.00 82 1012.0
20260506215435 60 50 2.0 7.0 0.00 0.72 0.72 83 1012.0
20260506214936 60 39 1.0 5.0 0.00 0.72 0.72 82 1012.0
20260506214435 60 314 1.0 3.0 0.00 0.72 0.72 83 1012.0
20260506213938 60 82 1.0 3.0 0.00 0.72 0.72 83 1012.0
20260506213435 60 282 1.0 3.0 0.00 0.72 0.72 82 1012.0
20260506212935 60 337 1.0 3.0 0.00 0.72 0.72 82 1012.0
20260506212435 60 281 0.0 5.0 0.00 0.72 0.72 83 1012.0
20260506211935 60 94 3.0 9.0 0.00 0.72 0.72 83 1012.0
20260506211442 60 56 1.0 3.0 0.00 0.72 0.72 83 1011.9
20260506210935 60 270 1.0 3.0 0.00 0.72 0.72 83 1011.9
20260506205939 60 13 1.0 5.0 0.00 0.72 0.72 83 1011.9
20260506205435 60 166 3.0 7.0 0.00 0.72 0.72 83 1012.0
20260506204936 60 348 1.0 8.0 0.00 0.72 0.72 83 1011.9
20260506204435 60 75 3.0 8.0 0.00 0.72 0.72 83 1011.9
20260506203435 60 66 2.0 8.0 0.00 0.72 0.72 83 1011.8
20260506202935 60 53 1.0 8.0 0.00 0.72 0.72 83 1011.8
20260506201435 60 285 1.0 5.0 0.00 0.72 0.72 82 1011.7
20260506200436 60 61 3.0 7.0 0.00 0.72 0.72 82 1011.6
20260506195936 60 72 3.0 8.0 0.00 0.72 0.72 82 1011.5
20260506195437 60 189 3.0 6.0 0.00 0.72 0.72 82 1011.5
20260506194935 60 80 1.0 5.0 0.00 0.72 0.72 82 1011.4
20260506193936 60 16 0.0 7.0 0.00 0.72 0.72 82 1011.3
20260506192935 60 73 2.0 5.0 0.00 0.72 0.72 83 1011.2
20260506192435 60 17 2.0 5.0 0.00 0.72 0.72 83 1011.2
20260506191936 60 76 1.0 5.0 0.00 0.72 0.72 83 1011.1
20260506190936 60 173 0.0 3.0 0.00 0.72 0.72 83 1011.0
20260506190435 60 139 3.0 12.0 0.00 0.72 0.72 83 1010.9
20260506185935 60 58 3.0 7.0 0.00 0.72 0.72 84 1010.8
20260506185436 60 263 2.0 5.0 0.00 0.72 0.72 83 1010.7
20260506184935 60 152 3.0 7.0 0.00 0.72 0.72 84 1010.7
20260506183435 60 45 2.0 7.0 0.00 0.72 0.72 85 1010.5
20260506182435 60 17 1.0 7.0 0.00 0.72 0.72 85 1010.4
20260506181935 60 328 2.0 7.0 0.00 0.72 0.72 85 1010.4
20260506181442 60 26 2.0 9.0 0.00 0.72 0.72 85 1010.3
20260506180935 60 89 2.0 8.0 0.00 0.72 0.72 85 1010.2
20260506175935 60 39 5.0 10.0 0.00 0.72 0.72 85 1010.0
20260506175435 61 94 5.0 12.0 0.00 0.72 0.72 85 1010.0
20260506174935 61 131 2.0 10.0 0.00 0.72 0.72 85 1010.0
20260506174438 61 340 2.0 7.0 0.00 0.72 0.72 85 1010.0
20260506173935 61 79 2.0 7.0 0.00 0.72 0.72 85 1009.9
20260506172935 61 63 4.0 9.0 0.00 0.72 0.72 84 1009.9
20260506172435 61 18 2.0 5.0 0.00 0.72 0.72 83 1009.8
20260506171935 61 39 4.0 9.0 0.00 0.72 0.72 83 1009.8
20260506171435 61 338 2.0 8.0 0.00 0.72 0.72 83 1009.7
20260506170942 62 12 5.0 10.0 0.00 0.72 0.72 82 1009.8
20260506170435 62 16 1.0 12.0 0.00 0.72 0.72 82 1009.7
20260506165935 62 5 2.0 7.0 0.00 0.72 0.72 82 1009.6
20260506165435 63 14 2.0 6.0 0.00 0.72 0.72 81 1009.6
20260506164935 63 265 2.0 6.0 0.00 0.72 0.72 81 1009.6
20260506164435 63 258 2.0 8.0 0.00 0.72 0.72 82 1009.7
20260506163935 63 298 1.0 5.0 0.00 0.72 0.72 82 1009.7
20260506163436 62 349 2.0 10.0 0.00 0.72 0.72 82 1009.8
20260506162935 62 335 2.0 5.0 0.00 0.72 0.72 82 1009.8
20260506162435 63 70 3.0 8.0 0.00 0.72 0.72 82 1009.7
20260506161935 63 55 3.0 7.0 0.00 0.72 0.72 81 1009.7
20260506161435 63 11 2.0 7.0 0.00 0.72 0.72 82 1009.7
20260506160940 63 286 2.0 6.0 0.00 0.72 0.72 82 1009.7
20260506160438 63 285 2.0 5.0 0.00 0.72 0.72 83 1009.7
20260506155936 63 354 3.0 8.0 0.00 0.72 0.72 82 1009.7
20260506154935 63 261 2.0 8.0 0.00 0.72 0.72 81 1009.6
20260506154435 64 274 1.0 6.0 0.00 0.72 0.72 80 1009.6
20260506153942 64 169 3.0 8.0 0.00 0.72 0.72 80 1009.7
20260506153436 65 139 3.0 12.0 0.00 0.72 0.72 82 1009.7
20260506152935 65 336 2.0 8.0 0.00 0.72 0.72 81 1009.6
20260506152435 65 246 5.0 7.0 0.00 0.72 0.72 80 1009.6
20260506151935 65 236 3.0 12.0 0.00 0.72 0.72 81 1009.5
20260506151437 65 223 3.0 9.0 0.00 0.72 0.72 82 1009.6
20260506150935 65 139 5.0 9.0 0.00 0.72 0.72 81 1009.6
20260506150435 65 200 5.0 12.0 0.00 0.72 0.72 80 1009.5
20260506145936 66 271 3.0 10.0 0.00 0.72 0.72 79 1009.5
20260506145451 66 217 5.0 9.0 0.00 0.72 0.72 78 1009.4
20260506144935 66 279 5.0 15.0 0.00 0.72 0.72 81 1009.4
20260506144435 65 331 2.0 6.0 0.00 0.72 0.72 80 1009.5
20260506143939 65 10 2.0 8.0 0.00 0.72 0.72 82 1009.5
20260506143437 64 195 3.0 8.0 0.00 0.72 0.72 81 1009.5
20260506142936 64 36 3.0 8.0 0.00 0.72 0.72 81 1009.5
20260506141935 65 221 2.0 7.0 0.00 0.72 0.72 79 1009.6
20260506141435 65 227 4.0 8.0 0.00 0.72 0.72 79 1009.6
20260506140935 65 207 3.0 9.0 0.00 0.72 0.72 82 1009.6
20260506140435 65 231 2.0 8.0 0.00 0.72 0.72 80 1009.6
20260506135935 65 344 2.0 8.0 0.00 0.72 0.72 80 1009.7
20260506134935 66 303 3.0 7.0 0.00 0.72 0.72 78 1009.7
20260506134435 66 298 4.0 12.0 0.00 0.72 0.72 78 1009.8
20260506133435 66 267 3.0 12.0 0.00 0.72 0.72 80 1009.8
20260506132937 65 200 6.0 12.0 0.00 0.72 0.72 80 1009.9
20260506132435 65 283 3.0 10.0 0.00 0.72 0.72 81 1009.8
20260506131940 65 195 5.0 10.0 0.00 0.72 0.72 80 1009.8
20260506131436 65 159 4.0 10.0 0.00 0.72 0.72 80 1009.8
20260506130935 65 226 5.0 9.0 0.00 0.72 0.72 84 1009.7
20260506125935 65 213 3.0 7.0 0.00 0.72 0.72 83 1009.7
20260506125435 65 283 2.0 10.0 0.00 0.72 0.72 83 1009.8
20260506124935 65 244 5.0 13.0 0.00 0.72 0.72 83 1009.8
20260506124437 64 177 2.0 6.0 0.00 0.72 0.72 85 1009.7
20260506123935 64 218 5.0 10.0 0.00 0.72 0.72 85 1009.7
20260506123442 64 221 4.0 10.0 0.00 0.72 0.72 86 1009.6
20260506122435 64 198 7.0 13.0 0.00 0.72 0.72 85 1009.5
20260506121438 64 269 3.0 12.0 0.00 0.72 0.72 86 1009.4
20260506120935 64 251 2.0 7.0 0.00 0.72 0.72 86 1009.4
20260506115935 63 250 2.0 5.0 0.00 0.72 0.72 87 1009.4
20260506114935 63 348 2.0 7.0 0.00 0.72 0.72 87 1009.4